time, Switch, Flow(0), Analog(2)
yyyy/mm/dd HH:MM:SS.fff, True=FILTERED|False=TOTAL, L/min, V
2023/07/01 13:00:04.531, True, 2.318, 0.131228
2023/07/01 13:00:05.036, True, 1.661, 0.132982
2023/07/01 13:00:05.531, True, 1.011, 0.129625
2023/07/01 13:00:06.036, True, 0.993, 0.130846
2023/07/01 13:00:06.540, True, 0.996, 0.130770
2023/07/01 13:00:07.035, True, 1.012, 0.132143
2023/07/01 13:00:07.540, True, 0.993, 0.130694
2023/07/01 13:00:08.044, True, 0.996, 0.131991
2023/07/01 13:00:08.539, True, 1.011, 0.130694
2023/07/01 13:00:09.044, True, 0.993, 0.132601
2023/07/01 13:00:09.548, True, 1.329, 0.131838
2023/07/01 13:00:10.043, True, 1.009, 0.130617
2023/07/01 13:00:10.547, True, 0.995, 0.131762
2023/07/01 13:00:11.052, True, 1.327, 0.133364
2023/07/01 13:00:11.548, True, 1.011, 0.128786
2023/07/01 13:00:12.052, True, 0.994, 0.131533
2023/07/01 13:00:12.556, True, 1.326, 0.131075
2023/07/01 13:00:13.052, True, 1.012, 0.130465
2023/07/01 13:00:13.556, True, 0.994, 0.129244
2023/07/01 13:00:14.060, True, 1.326, 0.132448
2023/07/01 13:00:14.556, True, 1.011, 0.131304
2023/07/01 13:00:15.060, True, 0.994, 0.128176
2023/07/01 13:00:15.556, True, 1.011, 0.131762
2023/07/01 13:00:16.060, True, 0.995, 0.132601
2023/07/01 13:00:16.564, True, 0.995, 0.130617
2023/07/01 13:00:17.060, True, 1.012, 0.130999
2023/07/01 13:00:17.564, True, 0.994, 0.133516
2023/07/01 13:00:18.068, True, 0.996, 0.131838
2023/07/01 13:00:18.564, True, 1.011, 0.129702
2023/07/01 13:00:19.068, True, 0.994, 0.130159
2023/07/01 13:00:19.572, True, 0.994, 0.128710
2023/07/01 13:00:20.068, True, 1.011, 0.130236
2023/07/01 13:00:20.572, True, 0.994, 0.131914
2023/07/01 13:00:21.076, True, 0.995, 0.129397
2023/07/01 13:00:21.572, True, 1.011, 0.132982
2023/07/01 13:00:22.076, True, 0.995, 0.131151
2023/07/01 13:00:22.572, True, 1.348, 0.129549
2023/07/01 13:00:23.076, True, 0.995, 0.130694
2023/07/01 13:00:23.580, True, 0.995, 0.132372
2023/07/01 13:00:24.076, True, 1.011, 0.131685
2023/07/01 13:00:24.580, True, 0.994, 0.130694
2023/07/01 13:00:25.083, True, 0.995, 0.131685
2023/07/01 13:00:25.580, True, 1.011, 0.131151
2023/07/01 13:00:26.084, True, 1.326, 0.132677
2023/07/01 13:00:26.588, True, 0.995, 0.131762
2023/07/01 13:00:27.084, True, 1.011, 0.131762
2023/07/01 13:00:27.588, True, 0.995, 0.131762
2023/07/01 13:00:28.092, True, 0.995, 0.133211
2023/07/01 13:00:28.588, True, 1.011, 0.131762
2023/07/01 13:00:29.092, True, 0.995, 0.132143
2023/07/01 13:00:29.596, True, 0.995, 0.132067
2023/07/01 13:00:30.092, True, 1.011, 0.131151
2023/07/01 13:00:30.595, True, 0.995, 0.130312
2023/07/01 13:00:31.100, True, 0.995, 0.132219
2023/07/01 13:00:31.596, True, 1.348, 0.131991
2023/07/01 13:00:32.100, True, 0.995, 0.129931
2023/07/01 13:00:32.604, True, 0.995, 0.130922
2023/07/01 13:00:33.100, True, 1.011, 0.130770
2023/07/01 13:00:33.604, True, 0.995, 0.129778
2023/07/01 13:00:34.108, True, 1.327, 0.131609
2023/07/01 13:00:34.604, True, 0.674, 0.132677
2023/07/01 13:00:35.108, True, 0.995, 0.134127
2023/07/01 13:00:35.612, True, 0.995, 0.131228
2023/07/01 13:00:36.108, True, 1.011, 0.129778
2023/07/01 13:00:36.612, True, 1.326, 0.134051
2023/07/01 13:00:37.116, True, 0.995, 0.129778
2023/07/01 13:00:37.612, True, 1.011, 0.130846
2023/07/01 13:00:38.116, True, 0.995, 0.133059
2023/07/01 13:00:38.620, True, 0.995, 0.131228
2023/07/01 13:00:39.115, True, 1.011, 0.133898
2023/07/01 13:00:39.620, True, 0.995, 0.131685
2023/07/01 13:00:40.124, True, 1.326, 0.129854
2023/07/01 13:00:40.620, True, 1.011, 0.132448
2023/07/01 13:00:41.124, True, 0.995, 0.130312
2023/07/01 13:00:41.627, True, 0.995, 0.130846
2023/07/01 13:00:42.124, True, 0.674, 0.130388
2023/07/01 13:00:42.628, True, 0.995, 0.133974
2023/07/01 13:00:43.132, True, 1.326, 0.131228
2023/07/01 13:00:43.628, True, 1.011, 0.130465
2023/07/01 13:00:44.132, True, 0.995, 0.131838
2023/07/01 13:00:44.636, True, 0.995, 0.130846
2023/07/01 13:00:45.132, True, 1.011, 0.131914
2023/07/01 13:00:45.636, True, 0.995, 0.131151
2023/07/01 13:00:46.140, True, 0.995, 0.129931
2023/07/01 13:00:46.636, True, 1.348, 0.132830
2023/07/01 13:00:47.139, True, 0.996, 0.131914
2023/07/01 13:00:47.644, True, 0.993, 0.132143
2023/07/01 13:00:48.140, True, 1.011, 0.133288
2023/07/01 13:00:48.644, True, 0.995, 0.131380
2023/07/01 13:00:49.148, True, 0.996, 0.134203
2023/07/01 13:00:49.644, True, 1.010, 0.130388
2023/07/01 13:00:50.148, True, 0.995, 0.133211
2023/07/01 13:00:50.652, True, 0.995, 0.130922
2023/07/01 13:00:51.148, True, 1.011, 0.131533
2023/07/01 13:00:51.652, True, 0.995, 0.131304
2023/07/01 13:00:52.156, True, 0.995, 0.131228
2023/07/01 13:00:52.652, True, 1.348, 0.131914
2023/07/01 13:00:53.156, True, 0.995, 0.131380
2023/07/01 13:00:53.660, True, 0.995, 0.133059
2023/07/01 13:00:54.156, True, 1.011, 0.131914
2023/07/01 13:00:54.660, True, 0.995, 0.131304
2023/07/01 13:00:55.164, True, 0.995, 0.132601
2023/07/01 13:00:55.660, True, 1.011, 0.131151
2023/07/01 13:00:56.164, True, 0.997, 0.133135
2023/07/01 13:00:56.668, True, 0.993, 0.134737
2023/07/01 13:00:57.164, True, 1.011, 0.132982
2023/07/01 13:00:57.668, True, 0.995, 0.131991
2023/07/01 13:00:58.172, True, 0.995, 0.134127
2023/07/01 13:00:58.668, True, 1.011, 0.134737
2023/07/01 13:00:59.172, True, 0.995, 0.133745
2023/07/01 13:00:59.676, True, 0.995, 0.134585
2023/07/01 13:01:00.172, True, 1.011, 0.133669
2023/07/01 13:01:00.676, True, 0.995, 0.132067
2023/07/01 13:01:01.172, True, 1.011, 0.134508
2023/07/01 13:01:01.676, True, 0.994, 0.133440
2023/07/01 13:01:02.180, True, 0.995, 0.133516
2023/07/01 13:01:02.676, True, 1.011, 0.134508
2023/07/01 13:01:03.180, True, 1.326, 0.135271
2023/07/01 13:01:03.684, True, 0.996, 0.133593
2023/07/01 13:01:04.180, True, 1.011, 0.135271
2023/07/01 13:01:04.684, True, 0.994, 0.132601
2023/07/01 13:01:05.188, True, 0.995, 0.134661
2023/07/01 13:01:05.692, True, 0.995, 0.134127
2023/07/01 13:01:06.187, True, 1.011, 0.133516
2023/07/01 13:01:06.692, True, 0.996, 0.138552
2023/07/01 13:01:07.196, True, 0.994, 0.132601
2023/07/01 13:01:07.692, True, 1.011, 0.136339
2023/07/01 13:01:08.196, True, 0.995, 0.135119
2023/07/01 13:01:08.692, True, 1.011, 0.135729
2023/07/01 13:01:09.195, True, 1.326, 0.136187
2023/07/01 13:01:09.700, True, 0.996, 0.134966
2023/07/01 13:01:10.203, True, 0.994, 0.137865
2023/07/01 13:01:10.699, True, 1.011, 0.138018
2023/07/01 13:01:11.204, True, 0.995, 0.136187
2023/07/01 13:01:11.708, True, 0.995, 0.136645
2023/07/01 13:01:12.204, True, 1.011, 0.136721
2023/07/01 13:01:12.708, True, 0.995, 0.135271
2023/07/01 13:01:13.212, True, 1.326, 0.134508
2023/07/01 13:01:13.708, True, 0.674, 0.137102
2023/07/01 13:01:14.212, True, 1.329, 0.134966
2023/07/01 13:01:14.708, True, 1.009, 0.137026
2023/07/01 13:01:15.212, True, 0.663, 0.138628
2023/07/01 13:01:15.716, True, 0.995, 0.139925
2023/07/01 13:01:16.212, True, 1.011, 0.136263
2023/07/01 13:01:16.716, True, 0.995, 0.139086
2023/07/01 13:01:17.220, True, 0.995, 0.135576
2023/07/01 13:01:17.716, True, 1.011, 0.136950
2023/07/01 13:01:18.220, True, 0.995, 0.138018
2023/07/01 13:01:18.724, True, 0.995, 0.137407
2023/07/01 13:01:19.220, True, 1.348, 0.136950
2023/07/01 13:01:19.724, True, 0.995, 0.138170
2023/07/01 13:01:20.228, True, 0.995, 0.136339
2023/07/01 13:01:20.724, True, 1.011, 0.137102
2023/07/01 13:01:21.228, True, 0.995, 0.138628
2023/07/01 13:01:21.732, True, 0.995, 0.137255
2023/07/01 13:01:22.228, True, 1.013, 0.138170
2023/07/01 13:01:22.731, True, 0.993, 0.137484
2023/07/01 13:01:23.236, True, 0.996, 0.137789
2023/07/01 13:01:23.740, True, 0.994, 0.137560
2023/07/01 13:01:24.236, True, 1.012, 0.139086
2023/07/01 13:01:24.740, True, 0.994, 0.140459
2023/07/01 13:01:25.244, True, 1.326, 0.138476
2023/07/01 13:01:25.748, True, 0.995, 0.140230
2023/07/01 13:01:26.244, True, 0.674, 0.137789
2023/07/01 13:01:26.748, True, 1.326, 0.138476
2023/07/01 13:01:27.244, True, 1.011, 0.136873
2023/07/01 13:01:27.748, True, 0.996, 0.138018
2023/07/01 13:01:28.251, True, 0.662, 0.136568
2023/07/01 13:01:28.747, True, 1.011, 0.138399
2023/07/01 13:01:29.251, True, 0.996, 0.138552
2023/07/01 13:01:29.755, True, 1.324, 0.140383
2023/07/01 13:01:30.252, True, 1.012, 0.136645
2023/07/01 13:01:30.756, True, 0.993, 0.137331
2023/07/01 13:01:31.260, True, 0.995, 0.135805
2023/07/01 13:01:31.755, True, 1.012, 0.141070
2023/07/01 13:01:32.260, True, 0.994, 0.139925
2023/07/01 13:01:32.764, True, 1.326, 0.138094
2023/07/01 13:01:33.260, True, 1.011, 0.140383
2023/07/01 13:01:33.764, True, 0.995, 0.137713
2023/07/01 13:01:34.268, True, 0.995, 0.138476
2023/07/01 13:01:34.764, True, 1.010, 0.138399
2023/07/01 13:01:35.268, True, 0.995, 0.138552
2023/07/01 13:01:35.772, True, 1.327, 0.139162
2023/07/01 13:01:36.268, True, 1.010, 0.140002
2023/07/01 13:01:36.772, True, 0.663, 0.138705
2023/07/01 13:01:37.276, True, 0.995, 0.139162
2023/07/01 13:01:37.772, True, 1.012, 0.139239
2023/07/01 13:01:38.276, True, 0.994, 0.140383
2023/07/01 13:01:38.780, True, 0.994, 0.138247
2023/07/01 13:01:39.276, True, 1.012, 0.139696
2023/07/01 13:01:39.780, True, 0.994, 0.140764
2023/07/01 13:01:40.284, True, 1.328, 0.137026
2023/07/01 13:01:40.780, True, 1.009, 0.139391
2023/07/01 13:01:41.283, True, 0.995, 0.138933
2023/07/01 13:01:41.787, True, 0.996, 0.138857
2023/07/01 13:01:42.284, True, 1.011, 0.139544
2023/07/01 13:01:42.788, True, 0.994, 0.138552
2023/07/01 13:01:43.292, True, 0.995, 0.138094
2023/07/01 13:01:43.796, True, 0.997, 0.136645
2023/07/01 13:01:44.292, True, 1.010, 0.136950
2023/07/01 13:01:44.796, True, 0.662, 0.136416
2023/07/01 13:01:45.299, True, 0.997, 0.140688
2023/07/01 13:01:45.796, True, 1.348, 0.137636
2023/07/01 13:01:46.300, True, 0.993, 0.138323
2023/07/01 13:01:46.804, True, 0.995, 0.140841
2023/07/01 13:01:47.300, True, 1.011, 0.139620
2023/07/01 13:01:47.804, True, 0.997, 0.138552
2023/07/01 13:01:48.308, True, 0.993, 0.139391
2023/07/01 13:01:48.812, True, 0.995, 0.137484
2023/07/01 13:01:49.308, True, 1.011, 0.140002
2023/07/01 13:01:49.812, True, 1.327, 0.138323
2023/07/01 13:01:50.316, True, 0.994, 0.139773
2023/07/01 13:01:50.812, True, 1.011, 0.138552
2023/07/01 13:01:51.316, True, 0.995, 0.139162
2023/07/01 13:01:51.820, True, 0.995, 0.139696
2023/07/01 13:01:52.316, True, 1.011, 0.139620
2023/07/01 13:01:52.820, True, 0.994, 0.139467
2023/07/01 13:01:53.324, True, 0.995, 0.138018
2023/07/01 13:01:53.820, True, 1.011, 0.140078
2023/07/01 13:01:54.324, True, 0.995, 0.139010
2023/07/01 13:01:54.828, True, 0.995, 0.139086
2023/07/01 13:01:55.324, True, 1.012, 0.139696
2023/07/01 13:01:55.828, True, 1.325, 0.138781
2023/07/01 13:01:56.324, True, 1.011, 0.139391
2023/07/01 13:01:56.828, True, 0.996, 0.141527
2023/07/01 13:01:57.332, True, 0.994, 0.139391
2023/07/01 13:01:57.828, True, 1.011, 0.140612
2023/07/01 13:01:58.332, True, 0.995, 0.139467
2023/07/01 13:01:58.836, True, 0.995, 0.138323
2023/07/01 13:01:59.332, True, 1.011, 0.139239
2023/07/01 13:01:59.836, True, 0.995, 0.137636
2023/07/01 13:02:00.340, True, 1.326, 0.139315
2023/07/01 13:02:00.836, True, 1.011, 0.138781
2023/07/01 13:02:01.340, True, 0.995, 0.139467
2023/07/01 13:02:01.843, True, 0.995, 0.139086
2023/07/01 13:02:02.340, True, 1.011, 0.138170
2023/07/01 13:02:02.844, True, 0.995, 0.138170
2023/07/01 13:02:03.348, True, 0.995, 0.138933
2023/07/01 13:02:03.844, True, 1.011, 0.138705
2023/07/01 13:02:04.348, True, 1.326, 0.139620
2023/07/01 13:02:04.844, True, 1.011, 0.137560
2023/07/01 13:02:05.348, True, 0.663, 0.138323
2023/07/01 13:02:05.852, True, 0.995, 0.139162
2023/07/01 13:02:06.348, True, 1.011, 0.140536
2023/07/01 13:02:06.852, True, 0.995, 0.139925
2023/07/01 13:02:07.356, True, 0.995, 0.138933
2023/07/01 13:02:07.852, True, 1.011, 0.139620
2023/07/01 13:02:08.356, True, 0.996, 0.136721
2023/07/01 13:02:08.860, True, 0.993, 0.140078
2023/07/01 13:02:09.356, True, 1.012, 0.138628
2023/07/01 13:02:09.860, True, 0.994, 0.139620
2023/07/01 13:02:10.364, True, 0.995, 0.139925
2023/07/01 13:02:10.860, True, 1.013, 0.139010
2023/07/01 13:02:11.364, True, 0.993, 0.138094
2023/07/01 13:02:11.868, True, 1.326, 0.138323
2023/07/01 13:02:12.364, True, 1.011, 0.138781
2023/07/01 13:02:12.868, True, 0.995, 0.137636
2023/07/01 13:02:13.372, True, 0.995, 0.137942
2023/07/01 13:02:13.868, True, 1.011, 0.139620
2023/07/01 13:02:14.372, True, 0.995, 0.138628
2023/07/01 13:02:14.876, True, 0.995, 0.137102
2023/07/01 13:02:15.372, True, 1.011, 0.138170
2023/07/01 13:02:15.876, True, 0.995, 0.136873
2023/07/01 13:02:16.372, True, 1.011, 0.140841
2023/07/01 13:02:16.876, True, 1.326, 0.138170
2023/07/01 13:02:17.380, True, 0.995, 0.138323
2023/07/01 13:02:17.876, True, 1.011, 0.138628
2023/07/01 13:02:18.380, True, 0.995, 0.140383
2023/07/01 13:02:18.884, True, 0.995, 0.141756
2023/07/01 13:02:19.380, True, 1.011, 0.139391
2023/07/01 13:02:19.884, True, 1.326, 0.136721
2023/07/01 13:02:20.388, True, 0.995, 0.140002
2023/07/01 13:02:20.884, True, 1.011, 0.138399
2023/07/01 13:02:21.387, True, 0.995, 0.138857
2023/07/01 13:02:21.892, True, 0.995, 0.139849
2023/07/01 13:02:22.396, True, 0.996, 0.137331
2023/07/01 13:02:22.892, True, 1.009, 0.137484
2023/07/01 13:02:23.396, True, 0.995, 0.139162
2023/07/01 13:02:23.900, True, 0.996, 0.141604
2023/07/01 13:02:24.396, True, 1.010, 0.139162
2023/07/01 13:02:24.900, True, 0.995, 0.138552
2023/07/01 13:02:25.396, True, 1.011, 0.136721
2023/07/01 13:02:25.900, True, 0.995, 0.139773
2023/07/01 13:02:26.404, True, 0.995, 0.138552
2023/07/01 13:02:26.900, True, 1.011, 0.137636
2023/07/01 13:02:27.404, True, 1.326, 0.138094
2023/07/01 13:02:27.908, True, 0.995, 0.139925
2023/07/01 13:02:28.404, True, 1.011, 0.137942
2023/07/01 13:02:28.908, True, 0.995, 0.140078
2023/07/01 13:02:29.411, True, 0.995, 0.137102
2023/07/01 13:02:29.908, True, 1.011, 0.137636
2023/07/01 13:02:30.412, True, 0.995, 0.138247
2023/07/01 13:02:30.916, True, 0.995, 0.137026
2023/07/01 13:02:31.412, True, 1.011, 0.139696
2023/07/01 13:02:31.916, True, 0.995, 0.138018
2023/07/01 13:02:32.420, True, 0.995, 0.139239
2023/07/01 13:02:32.916, True, 0.674, 0.138094
2023/07/01 13:02:33.420, True, 0.995, 0.139391
2023/07/01 13:02:33.924, True, 1.326, 0.138705
2023/07/01 13:02:34.420, True, 1.011, 0.138170
2023/07/01 13:02:34.924, True, 0.995, 0.139620
2023/07/01 13:02:35.428, True, 0.995, 0.138094
2023/07/01 13:02:35.924, True, 1.011, 0.139849
2023/07/01 13:02:36.428, True, 0.995, 0.140230
2023/07/01 13:02:36.924, True, 1.012, 0.140002
2023/07/01 13:02:37.428, True, 0.993, 0.137789
2023/07/01 13:02:37.932, True, 1.326, 0.138476
2023/07/01 13:02:38.427, True, 1.011, 0.137713
2023/07/01 13:02:38.932, True, 0.995, 0.138933
2023/07/01 13:02:39.436, True, 0.995, 0.137636
2023/07/01 13:02:39.932, True, 0.674, 0.139162
2023/07/01 13:02:40.436, True, 1.326, 0.139773
2023/07/01 13:02:40.940, True, 0.995, 0.139315
2023/07/01 13:02:41.444, True, 0.663, 0.136568
2023/07/01 13:02:41.940, True, 1.011, 0.136339
2023/07/01 13:02:42.444, True, 0.995, 0.138094
2023/07/01 13:02:42.940, True, 1.011, 0.138705
2023/07/01 13:02:43.444, True, 0.995, 0.139925
2023/07/01 13:02:43.948, True, 0.995, 0.139239
2023/07/01 13:02:44.444, True, 1.011, 0.138094
2023/07/01 13:02:44.948, True, 0.995, 0.138094
2023/07/01 13:02:45.452, True, 0.995, 0.137636
2023/07/01 13:02:45.948, True, 0.674, 0.138476
2023/07/01 13:02:46.452, True, 1.326, 0.136797
2023/07/01 13:02:46.956, True, 0.663, 0.137789
2023/07/01 13:02:47.452, True, 1.011, 0.138476
2023/07/01 13:02:47.956, True, 0.995, 0.139925
2023/07/01 13:02:48.460, True, 0.995, 0.138323
2023/07/01 13:02:48.956, True, 1.011, 0.138094
2023/07/01 13:02:49.460, True, 0.995, 0.137942
2023/07/01 13:02:49.964, True, 0.995, 0.139696
2023/07/01 13:02:50.460, True, 1.011, 0.138476
2023/07/01 13:02:50.964, True, 1.327, 0.138247
2023/07/01 13:02:51.468, True, 0.995, 0.140841
2023/07/01 13:02:51.972, True, 0.996, 0.137484
2023/07/01 13:02:52.467, True, 1.011, 0.136263
2023/07/01 13:02:52.972, True, 0.994, 0.138857
2023/07/01 13:02:53.468, True, 1.011, 0.139086
2023/07/01 13:02:53.972, True, 0.995, 0.139010
2023/07/01 13:02:54.476, True, 0.995, 0.138323
2023/07/01 13:02:54.972, True, 1.011, 0.140307
2023/07/01 13:02:55.476, True, 0.995, 0.138476
2023/07/01 13:02:55.980, True, 0.995, 0.137484
2023/07/01 13:02:56.484, True, 1.326, 0.138476
2023/07/01 13:02:56.980, True, 1.012, 0.139086
2023/07/01 13:02:57.484, True, 0.994, 0.136110
2023/07/01 13:02:57.988, True, 0.995, 0.139544
2023/07/01 13:02:58.484, True, 1.011, 0.136721
2023/07/01 13:02:58.988, True, 1.326, 0.136568
2023/07/01 13:02:59.492, True, 0.996, 0.140002
2023/07/01 13:02:59.988, True, 0.673, 0.136416
2023/07/01 13:03:00.492, True, 1.326, 0.138323
2023/07/01 13:03:00.988, True, 1.011, 0.138857
2023/07/01 13:03:01.492, True, 0.995, 0.139849
2023/07/01 13:03:01.995, True, 0.995, 0.136873
2023/07/01 13:03:02.492, True, 1.011, 0.137026
2023/07/01 13:03:02.996, True, 0.995, 0.137331
2023/07/01 13:03:03.500, True, 0.995, 0.139239
2023/07/01 13:03:03.996, True, 1.011, 0.138094
2023/07/01 13:03:04.500, True, 0.995, 0.134661
2023/07/01 13:03:05.003, True, 0.995, 0.137636
2023/07/01 13:03:05.499, True, 1.011, 0.137636
2023/07/01 13:03:06.004, True, 0.995, 0.138399
2023/07/01 13:03:06.508, True, 0.995, 0.139010
2023/07/01 13:03:07.003, True, 1.348, 0.135348
2023/07/01 13:03:07.508, True, 0.995, 0.138628
2023/07/01 13:03:08.012, True, 0.995, 0.138628
2023/07/01 13:03:08.507, True, 1.011, 0.138628
2023/07/01 13:03:09.011, True, 0.995, 0.136950
2023/07/01 13:03:09.516, True, 0.995, 0.138094
2023/07/01 13:03:10.012, True, 1.011, 0.138170
2023/07/01 13:03:10.516, True, 0.996, 0.137102
2023/07/01 13:03:11.020, True, 0.993, 0.137102
2023/07/01 13:03:11.516, True, 1.011, 0.138781
2023/07/01 13:03:12.020, True, 0.995, 0.138781
2023/07/01 13:03:12.524, True, 0.995, 0.138476
2023/07/01 13:03:13.020, True, 1.011, 0.137331
2023/07/01 13:03:13.524, True, 0.995, 0.138857
2023/07/01 13:03:14.028, True, 0.996, 0.138628
2023/07/01 13:03:14.532, True, 0.993, 0.137713
2023/07/01 13:03:15.028, True, 1.348, 0.137331
2023/07/01 13:03:15.532, True, 0.994, 0.138399
2023/07/01 13:03:16.028, True, 1.011, 0.137560
2023/07/01 13:03:16.532, True, 0.995, 0.137484
2023/07/01 13:03:17.036, True, 0.995, 0.140993
2023/07/01 13:03:17.531, True, 1.011, 0.137484
2023/07/01 13:03:18.036, True, 0.993, 0.140612
2023/07/01 13:03:18.540, True, 1.328, 0.137331
2023/07/01 13:03:19.036, True, 1.011, 0.137026
2023/07/01 13:03:19.540, True, 0.996, 0.136568
2023/07/01 13:03:20.044, True, 0.993, 0.136492
2023/07/01 13:03:20.540, True, 1.011, 0.136950
2023/07/01 13:03:21.044, True, 0.995, 0.137942
2023/07/01 13:03:21.548, True, 1.327, 0.137713
2023/07/01 13:03:22.044, True, 1.010, 0.139162
2023/07/01 13:03:22.548, True, 0.995, 0.137331
2023/07/01 13:03:23.052, True, 0.994, 0.137942
2023/07/01 13:03:23.556, True, 0.995, 0.136568
2023/07/01 13:03:24.052, True, 1.012, 0.136263
2023/07/01 13:03:24.556, True, 0.994, 0.137636
2023/07/01 13:03:25.052, True, 1.011, 0.137026
2023/07/01 13:03:25.556, True, 0.995, 0.136645
2023/07/01 13:03:26.060, True, 0.663, 0.137865
2023/07/01 13:03:26.556, True, 1.011, 0.140993
2023/07/01 13:03:27.060, True, 0.995, 0.138323
2023/07/01 13:03:27.564, True, 0.995, 0.139849
2023/07/01 13:03:28.060, True, 1.013, 0.138552
2023/07/01 13:03:28.564, True, 0.993, 0.138476
2023/07/01 13:03:29.068, True, 0.995, 0.137484
2023/07/01 13:03:29.564, True, 1.011, 0.137407
2023/07/01 13:03:30.068, True, 0.995, 0.137179
2023/07/01 13:03:30.564, True, 1.011, 0.136110
2023/07/01 13:03:31.068, True, 1.326, 0.136645
2023/07/01 13:03:31.572, True, 0.997, 0.137865
2023/07/01 13:03:32.068, True, 1.009, 0.138094
2023/07/01 13:03:32.572, True, 0.995, 0.137865
2023/07/01 13:03:33.076, True, 0.995, 0.135958
2023/07/01 13:03:33.580, True, 0.995, 0.138018
2023/07/01 13:03:34.076, True, 1.011, 0.138247
2023/07/01 13:03:34.580, True, 0.995, 0.137407
2023/07/01 13:03:35.076, True, 1.011, 0.136950
2023/07/01 13:03:35.580, True, 0.995, 0.137865
2023/07/01 13:03:36.084, True, 0.995, 0.138857
2023/07/01 13:03:36.588, True, 0.995, 0.136034
2023/07/01 13:03:37.084, True, 1.011, 0.136263
2023/07/01 13:03:37.588, True, 0.994, 0.138476
2023/07/01 13:03:38.092, True, 0.995, 0.135805
2023/07/01 13:03:38.588, True, 1.011, 0.136034
2023/07/01 13:03:39.092, True, 0.995, 0.138094
2023/07/01 13:03:39.596, True, 0.995, 0.136950
2023/07/01 13:03:40.092, True, 1.011, 0.138018
2023/07/01 13:03:40.596, True, 0.995, 0.138170
2023/07/01 13:03:41.100, True, 0.995, 0.137560
2023/07/01 13:03:41.596, True, 1.011, 0.137102
2023/07/01 13:03:42.100, True, 0.995, 0.137713
2023/07/01 13:03:42.604, True, 0.996, 0.135195
2023/07/01 13:03:43.100, True, 1.009, 0.137255
2023/07/01 13:03:43.604, True, 0.995, 0.135271
2023/07/01 13:03:44.100, True, 1.011, 0.137484
2023/07/01 13:03:44.604, True, 0.995, 0.137636
2023/07/01 13:03:45.108, True, 0.995, 0.135958
2023/07/01 13:03:45.612, True, 0.995, 0.136110
2023/07/01 13:03:46.108, True, 1.348, 0.136416
2023/07/01 13:03:46.612, True, 0.995, 0.135195
2023/07/01 13:03:47.116, True, 0.995, 0.136339
2023/07/01 13:03:47.612, True, 1.011, 0.138857
2023/07/01 13:03:48.116, True, 0.995, 0.137255
2023/07/01 13:03:48.620, True, 0.995, 0.137407
2023/07/01 13:03:49.116, True, 1.348, 0.137026
2023/07/01 13:03:49.620, True, 0.995, 0.135653
2023/07/01 13:03:50.116, True, 1.011, 0.137636
2023/07/01 13:03:50.620, True, 0.663, 0.136339
2023/07/01 13:03:51.124, True, 0.995, 0.138476
2023/07/01 13:03:51.620, True, 1.011, 0.136645
2023/07/01 13:03:52.124, True, 0.995, 0.136950
2023/07/01 13:03:52.628, True, 1.327, 0.135729
2023/07/01 13:03:53.124, True, 1.010, 0.137026
2023/07/01 13:03:53.628, True, 0.995, 0.136645
2023/07/01 13:03:54.132, True, 0.995, 0.137789
2023/07/01 13:03:54.628, True, 1.011, 0.136721
2023/07/01 13:03:55.132, True, 0.995, 0.135119
2023/07/01 13:03:55.636, True, 0.995, 0.136721
2023/07/01 13:03:56.132, True, 1.011, 0.136187
2023/07/01 13:03:56.636, True, 0.995, 0.134356
2023/07/01 13:03:57.140, True, 0.995, 0.137179
2023/07/01 13:03:57.636, True, 1.011, 0.139010
2023/07/01 13:03:58.140, True, 0.995, 0.138094
2023/07/01 13:03:58.644, True, 0.995, 0.139239
2023/07/01 13:03:59.140, True, 1.011, 0.138781
2023/07/01 13:03:59.644, True, 1.326, 0.137942
2023/07/01 13:04:00.148, True, 0.664, 0.138552
2023/07/01 13:04:00.644, True, 1.009, 0.138476
2023/07/01 13:04:01.148, True, 0.995, 0.137179
2023/07/01 13:04:01.652, True, 0.995, 0.137026
2023/07/01 13:04:02.148, True, 1.011, 0.136492
2023/07/01 13:04:02.652, True, 0.995, 0.138018
2023/07/01 13:04:03.148, True, 1.011, 0.136645
2023/07/01 13:04:03.652, True, 0.995, 0.134890
2023/07/01 13:04:04.156, True, 0.995, 0.136034
2023/07/01 13:04:04.660, True, 0.995, 0.137713
2023/07/01 13:04:05.156, True, 1.011, 0.136263
2023/07/01 13:04:05.660, True, 0.995, 0.137789
2023/07/01 13:04:06.164, True, 0.995, 0.135271
2023/07/01 13:04:06.660, True, 1.011, 0.136797
2023/07/01 13:04:07.163, True, 0.995, 0.138094
2023/07/01 13:04:07.668, True, 0.995, 0.138857
2023/07/01 13:04:08.164, True, 1.011, 0.136721
2023/07/01 13:04:08.668, True, 0.995, 0.136339
2023/07/01 13:04:09.172, True, 0.996, 0.137865
2023/07/01 13:04:09.668, True, 1.010, 0.136950
2023/07/01 13:04:10.172, True, 0.995, 0.135805
2023/07/01 13:04:10.676, True, 0.995, 0.135805
2023/07/01 13:04:11.172, True, 1.011, 0.137942
2023/07/01 13:04:11.676, True, 0.995, 0.138628
2023/07/01 13:04:12.180, True, 0.995, 0.135805
2023/07/01 13:04:12.676, True, 1.011, 0.136797
2023/07/01 13:04:13.180, True, 1.326, 0.136263
2023/07/01 13:04:13.684, True, 0.995, 0.135805